Regional Weather Roundup
Issued by NWS

Home | Current Version | Previous Version | Text Only | Print | Product List | Glossary On
Versions: 1 2 3 4 5 6 7 8 9 10 11 12 13 14 15 16 17 18 19 20 21 22 23 24 25 26 27
000
ASUS44 KJAN 281310
RWRMS

MISSISSIPPI HOURLY WEATHER ROUNDUP
NATIONAL WEATHER SERVICE JACKSON MS
800 AM CDT FRI APR 28 2017

NOTE: "FAIR: INDICATES FEW OR NO CLOUDS BELOW 12,000 FEET WITH NO
SIGNIFICANT WEATHER AND/OR OBSTRUCTIONS TO VISIBILITY.

MSZ001>002-007>008-010>013-018>021-025>028-034>036-281400-
NORTHWEST MISSISSIPPI

CITY           SKY/WX    TMP DP  RH WIND       PRES   REMARKS
BATESVILLE     FAIR      64  59  82 S6        29.82S
CLARKSDALE     MOSUNNY   64  64 100 SE7       29.80F
CLEVELAND      CLOUDY    65  65 100 SE13G18   29.78F
GREENWOOD      CLOUDY    68  66  93 S13       29.82R
GREENVILLE     CLOUDY    65  61  87 SE13      29.77F
OLIVE BRANCH   PTSUNNY  N/A N/A N/A S6        29.82R
OXFORD         FAIR      63  57  82 SE8       29.86R
TUNICA         MOSUNNY   63  59  88 SE9       29.82S
WINONA         CLOUDY    64  64 100 S5        29.84S
$$

MSZ003>006-009-014>017-022>024-029>033-037>039-281400-
NORTHEAST MISSISSIPPI

CITY           SKY/WX    TMP DP  RH WIND       PRES   REMARKS
COLUMBUS AFB   FOG       67  67 100 SE7       29.88R VSB 1
CORINTH        PTSUNNY   61  57  88 SE5       29.87R
GOLDN TRIANGLE PTSUNNY   66  63  88 S9        29.85R FOG
STARKVILLE     FOG       63  61  94 S5        29.89R VSB 1/2
TUPELO         CLOUDY    62  59  90 SE9       29.87R
$$

MSZ040-058-281400-
CENTRAL MISSISSIPPI

CITY           SKY/WX    TMP DP  RH WIND       PRES   REMARKS
JACKSON INTL   CLOUDY    70  68  93 SE8       29.84R FOG
JACKSON HAWKNS CLOUDY    69  67  93 SE7       29.84R FOG
MADISON        CLOUDY    68  66  94 SE3       29.84S
MERIDIAN KEY   CLOUDY    75  72  90 S10       29.88R
MERIDIAN NAS   CLOUDY    71  67  87 SE6       29.89S FOG
RAYMOND        CLOUDY    70  70 100 MISG      29.82S FOG
VICKSBURG VKS  CLOUDY    70  66  88 SE8       29.77S
$$

MSZ059>079-281400-
SOUTH MISSISSIPPI

CITY           SKY/WX    TMP DP  RH WIND       PRES   REMARKS
HATTIESBURG    CLOUDY    75  72  90 SE9       29.87R
LAUREL         CLOUDY    74  74 100 SE8       29.88R
MCCOMB         CLOUDY    76  71  85 S13       29.84R
NATCHEZ        CLOUDY    74  71  91 SE12      29.81R
PINE BELT      PTSUNNY   73  70  88 SE9       29.87S
$$

MSZ080>082-281400-
COASTAL MISSISSIPPI

CITY           SKY/WX    TMP DP  RH WIND       PRES   REMARKS
BAY ST LOUIS   CLOUDY    77  72  83 S12G21    29.88R
BILOXI         CLOUDY    77  75  91 S13       29.89R
PASCAGOULA     CLOUDY    78  73  84 S10       29.91R
GULFPORT       CLOUDY    78  75  90 SE17      29.89R
$$

LAZ007>009-015>016-023>026-281400-
NORTHEAST LOUISIANA

CITY           SKY/WX    TMP DP  RH WIND       PRES   REMARKS
BASTROP        CLOUDY    68  67  98 SE6       29.75S
TALLULAH/VBURG CLOUDY    70  67  90 SE15      29.78S
VIDALIA        CLOUDY    75  71  88 SE9       29.78R
$$




USA.gov is the U.S. government's official web portal to all federal, state and local government web resources and services.